Regional Weather Roundup
Issued by NWS Charleston, WV

Home | Current Version | Previous Version | Text Only | Print | Product List | Glossary Off
Versions: 1 2 3 4 5 6 7 8 9 10 11 12 13 14 15 16 17 18 19 20 21 22 23 24 25 26 27 28 29 30 31 32 33 34 35 36 37 38 39 40 41 42 43 44 45 46 47 48 49 50

000
ASUS41 KRLX 261810
RWRRLX
West Virginia Regional Weather Roundup
National Weather Service Charleston WV
200 PM EDT FRI MAY 26 2017

Note: "fair" indicates few or no clouds below 12,000 feet with no
significant weather and/or obstructions to visibility.

WVZ003-261900-
Northern Panhandle of West Virginia

CITY           SKY/WX    TMP DP  RH WIND       PRES   REMARKS
WHEELING       CLOUDY    63  54  72 W8        29.88R
$$

WVZ009-261900-
Northwest West Virginia

CITY           SKY/WX    TMP DP  RH WIND       PRES   REMARKS
PARKERSBURG    CLOUDY    72  54  53 W17G26    29.93R
$$

WVZ006-261900-
Western West Virginia

CITY           SKY/WX    TMP DP  RH WIND       PRES   REMARKS
HUNTINGTON     PTSUNNY   74  56  53 SW9       29.94S
$$

WVZ015-261900-
West Central West Virginia

CITY           SKY/WX    TMP DP  RH WIND       PRES   REMARKS
CHARLESTON     PTSUNNY   71  54  54 W9G21     29.94S
$$

WVZ022-031-261900-
North Central West Virginia

CITY           SKY/WX    TMP DP  RH WIND       PRES   REMARKS
CLARKSBURG     CLOUDY    66  53  63 W10       29.90R
MORGANTOWN     CLOUDY    67  51  56 W10G17    29.89R
$$

WVZ025-035-042-045-261900-
Southern West Virginia

CITY           SKY/WX    TMP DP  RH WIND       PRES   REMARKS
BECKLEY        PTSUNNY   68  50  52 W20       29.99R
LOGAN          CLOUDY    70  54  56 SW9       29.98S
BLUEFIELD      MOSUNNY   66  48  52 W13G21    30.02R
LEWISBURG      MOSUNNY   67  47  49 NW9G20    29.97R
$$

WVZ047-261900-
Northern Mountains of West Virginia

CITY           SKY/WX    TMP DP  RH WIND       PRES   REMARKS
ELKINS         CLOUDY    64  51  62 W8G20     29.93R
$$

WVZ052-261900-
Eastern Panhandle of West Virginia

CITY           SKY/WX    TMP DP  RH WIND       PRES   REMARKS
MARTINSBURG    CLOUDY    68  54  60 W12       29.79S
PETERSBURG     CLOUDY    71  55  57 W16G25    29.86S
$$



USA.gov is the U.S. government's official web portal to all federal, state and local government web resources and services.